Regional Weather Roundup
Issued by NWS

Home | Current Version | Previous Version | Graphics & Text | Print | Product List | Glossary On
Versions: 1 2 3 4 5 6 7 8 9 10 11 12 13 14 15 16 17 18 19 20 21 22 23 24 25 26 27 28 29 30 31 32 33 34 35 36 37 38 39 40 41 42 43 44 45 46 47 48 49
000
ASUS45 KBOU 250507
RWRCO

WEATHER ROUNDUP FOR COLORADO
NATIONAL WEATHER SERVICE DENVER/BOULDER CO
1000 PM MST SAT JAN 24 2015

NOTE: "FAIR" INDICATES FEW OR NO CLOUDS BELOW 12000 FEET WITH NO
SIGNIFICANT WEATHER AND/OR OBSTRUCTIONS TO VISIBILITY.

COZ001>005-013-030-031-250600-
...NORTHWEST COLORADO...

CITY           SKY/WX    TMP DP  RH WIND       PRES   REMARKS
CRAIG          CLOUDY    27  20  75 CALM      30.35S
HAYDEN         CLOUDY    25  16  68 NE3       30.33S
MEEKER         MOCLDY    21  14  74 CALM      30.36R
MOUNT WERNER   NOT AVBL
STEAMBOAT SPGS CLOUDY    24  15  70 SE3       30.32F
WALDEN         CLOUDY    30  21  69 SW14      30.24F WCI  20
$$

COZ006>008-011-250600-
...WEST CENTRAL VALLEYS...

CITY           SKY/WX    TMP DP  RH WIND       PRES   REMARKS
GRAND JUNCTION PTCLDY    25  17  72 E5        30.38R WCI  19
MONTROSE       CLEAR     23  14  68 S7        30.39R WCI  15
EAGLE          CLOUDY    27  18  69 CALM      30.38S
RIFLE          CLOUDY    26  19  74 E3        30.39R
DELTA          CLEAR     26  16  65 N3        30.39R
NUCLA          CLEAR     28  16  59 SE6       30.38R WCI  22
$$

COZ017>023-064>068-250600-
...SOUTHWEST COLORADO...

CITY           SKY/WX    TMP DP  RH WIND       PRES   REMARKS
DURANGO        PTCLDY    23  18  81 NE6       30.27R WCI  16
CORTEZ         CLEAR     23  16  74 NE8       30.26F WCI  14
PAGOSA SPRINGS PTCLDY    19  16  90 CALM      30.28R
TELLURIDE      CLEAR     29  10  44 SE7       30.37R WCI  22
WOLF CREEK PAS NOT AVBL
$$

COZ009-010-012-014-032>034-037-058>063-250600-
...CENTRAL COLORADO...

CITY           SKY/WX    TMP DP  RH WIND       PRES   REMARKS
ASPEN          CLOUDY    27  18  69 CALM      30.35R
BUENA VISTA    PTCLDY    33  19  56 CALM      30.22S
COPPER MTN     CLOUDY    25  19  80 MISG      30.29R HAZE
BERTHOUD PASS  HVY SNOW  16  10  79 W44G54    30.21R VSB 1/4 WCI  -8
COTTONWOOD PAS PTCLDY    34  18  51 SW8G20    30.24F WCI  27
GUNNISON       PTCLDY     3  -8  60 N3        30.40R
KREMMLING      CLOUDY    19  10  68 CALM      30.34S
LEADVILLE      MOCLDY    27  14  58 NW9G20    30.30S WCI  18
MONARCH PASS   PTCLDY    18  10  73 MISG      30.41R
SALIDA         PTCLDY    38  14  37 W5G16     30.30R
SUNLIGHT       CLOUDY    27  19  74 CALM        N/A
WILKERSON PASS MOCLDY    25  18  74 NW15G28   30.26S WCI  12
$$

COZ069>075-250600-
...SAN LUIS VALLEY/SANGRE DE CRISTO MOUNTAINS...

CITY           SKY/WX    TMP DP  RH WIND       PRES   REMARKS
ALAMOSA        MOCLDY    16  11  80 W6        30.27R WCI   7
LA VETA PASS   NOT AVBL
SAGUACHE       PTCLDY    25  10  54 W3        30.29R
$$

COZ035-036-038>040-250600-
...NORTHERN COLORADO FRONT RANGE...

CITY           SKY/WX    TMP DP  RH WIND       PRES   REMARKS
DENVER INTL AP MOCLDY    36  27  69 NE15      30.14R
DMNS CITY PARK   N/A     46  21  37 W9G18     30.12S
AURORA         PTCLDY    38  22  52 NE5       30.14R
FRONT RANGE AP NOT AVBL
ERIE MUNI ARPT CLEAR     38  22  52 SE10      30.11R
BOULDER MUN AP CLEAR     45  21  39 N6        30.10R
CENTENNIAL     PTCLDY    42  24  49 NW13      30.12S
BROOMFIELD     CLEAR     45  21  39 W14G23    30.12R
FORT COLLINS   PTCLDY    43  25  49 NW6       30.11S
LONGMONT       PTCLDY    34  22  61 CALM      30.12S
$$

COZ041-046-047-076>085-087-088-250600-
...PIKES PEAK/PALMER DIVIDE AND SOUTHERN FOOTHILLS...

CITY           SKY/WX    TMP DP  RH WIND       PRES   REMARKS
COLO. SPRINGS  PTCLDY    40  23  50 N13       30.12R
A. F. ACADEMY  MOCLDY    33  21  61 NE8       30.12S WCI  26
ELLICOTT       PTCLDY   N/A N/A N/A N13       30.11R
FALCON         PTCLDY    37  22  54 N10       30.14S
FORT CARSON    PTCLDY    42  22  45 NW10      30.09R
LIMON          MOCLDY    35  28  75 N25G36    30.13R WCI  23
MONUMENT HILL  PTCLDY    32  23  69 NW10      30.13S WCI  24
TRINIDAD       MOCLDY    36  21  54 W10       30.11R
$$

COZ042>045-048>051-090-091-250600-
...NORTHEAST COLORADO...

CITY           SKY/WX    TMP DP  RH WIND       PRES   REMARKS
GREELEY ARPT   CLOUDY    39  27  60 NE16      30.11S
AKRON          MOCLDY    37  30  75 NW37G47   30.09F
BURLINGTON     CLOUDY    40  30  67 NW26G38   30.07R
WRAY           CLOUDY    41  32  70 W23G30    30.04R
STERLING       MOCLDY    41  34  75 NW24G36   30.07S
HOLYOKE        CLOUDY    41  30  65 NW20G30   30.03R
FORT MORGAN    CLOUDY    39  28  64 N24G33    30.14R
$$

COZ086-089-092>099-250600-
...SOUTHEAST COLORADO...

CITY           SKY/WX    TMP DP  RH WIND       PRES   REMARKS
PUEBLO         CLEAR     36  25  64 CALM      30.10R
LA JUNTA       MOCLDY    41  27  57 N7        30.10R
LAMAR          CLOUDY    36  31  82 SW6       30.06R
SPRINGFIELD      N/A     34  27  75 NW8       30.07R WCI  27
$$


USA.gov is the U.S. government's official web portal to all federal, state and local government web resources and services.